Location: Port Huron, MI 48060, USA
(42.9794°N, 82.4282°W)
Time: 15:26:20
(UTC-05:00)

ISS - Visible Passes

Search period start: 14 December 2018 00:00
Search period end: 24 December 2018 00:00
Orbit: 401 x 408 km, 51.6° (Epoch: 15 December)

Date Brightness Start Highest point End Pass type
(mag) Time Alt. Az. Time Alt. Az. Time Alt. Az.
14 Dec -2.7 17:25:17 10° WNW 17:28:27 47° SW 17:31:36 10° SE visible
15 Dec -0.2 18:11:20 10° WSW 18:12:20 11° SW 18:13:20 10° SSW visible
22 Dec -1.2 07:13:26 10° SSW 07:16:12 25° SE 07:18:59 10° ENE visible
23 Dec -0.6 06:22:20 10° SSE 06:24:09 14° SE 06:25:58 10° E visible
